Fredericksburg, VA

10:33 PM EDT on August 28, 2016 (GMT -0400)
Shannon

Weather History for KEZF - May, 2014

Change the Weather History Date:

Tuesday, May 20, 2014

  Actual Average (KNYG) Record (KNYG)
Temperature  
Mean Temperature 64 °F -  
Max Temperature 79 °F 72 °F 88 °F (1998)
Min Temperature 50 °F 54 °F 43 °F (2002)
Growing Degree Days 14 (Base 50)    
Moisture  
Dew Point 49 °F    
Average Humidity 60    
Maximum Humidity 89    
Minimum Humidity 30    
Precipitation  
Precipitation 0.00 in - - ()
Sea Level Pressure  
Sea Level Pressure 30.13 in    
Wind  
Wind Speed 1 mph (SW)    
Max Wind Speed 10 mph    
Max Gust Speed -    
Visibility 10 miles    
Events      
Averages and records for this station are not official NWS values.
T = Trace of Precipitation, MM = Missing Value Source: NWS Daily Summary

Daily Weather History Graph

Daily Weather History Graph

Search for Another Location

Airport or City:

Trip Planner

Search our weather history database for the weather conditions in past years. The results will help you decide how hot, cold, wet, or windy it might be!

Date:

Astronomy

May. 20, 2014 Rise Set
Actual Time 5:54 AM EDT 8:18 PM EDT
Civil Twilight 5:24 AM EDT 8:48 PM EDT
Nautical Twilight 4:47 AM EDT 9:25 PM EDT
Astronomical Twilight 4:06 AM EDT 10:06 PM EDT
Moon 12:48 AM EDT (5/20) 11:57 AM EDT (5/20)
Length of Visible Light 15h 23m
Length of Day
14h 23m
Waning Gibbous, 60% of the Moon is Illuminated
May 20
Waning Gibbous
May 21
Last Quarter
May 28
New
Jun 5
First Quarter
Jun 13
Full

Hourly Weather History & Observations

Time (EDT) Temp. Dew Point Humidity Pressure Visibility Wind Dir Wind Speed Gust Speed Precip Events Conditions
12:15 AM 53.8 °F 47.8 °F 80% 30.20 in 10.0 mi Calm Calm - N/A   Clear
12:35 AM 53.6 °F 48.2 °F 82% 30.20 in 10.0 mi Calm Calm - N/A   Clear
12:55 AM 53.2 °F 48.2 °F 83% 30.20 in 10.0 mi Calm Calm - N/A   Clear
1:15 AM 53.2 °F 47.5 °F 81% 30.20 in 10.0 mi Calm Calm - N/A   Clear
1:35 AM 53.4 °F 47.5 °F 80% 30.19 in 10.0 mi Calm Calm - N/A   Clear
1:55 AM 53.1 °F 47.7 °F 82% 30.19 in 10.0 mi Calm Calm - N/A   Clear
2:15 AM 52.5 °F 47.3 °F 82% 30.19 in 10.0 mi Calm Calm - N/A   Clear
2:35 AM 52.0 °F 46.6 °F 82% 30.18 in 10.0 mi Calm Calm - N/A   Clear
2:55 AM 51.8 °F 46.4 °F 82% 30.18 in 10.0 mi Calm Calm - N/A   Clear
3:15 AM 51.8 °F 46.4 °F 82% 30.18 in 10.0 mi Calm Calm - N/A   Clear
3:35 AM 52.3 °F 46.4 °F 80% 30.19 in 10.0 mi Calm Calm - N/A   Clear
3:55 AM 52.9 °F 46.6 °F 79% 30.19 in 10.0 mi Calm Calm - N/A   Clear
4:35 AM 51.8 °F 46.8 °F 83% 30.19 in 10.0 mi Calm Calm - N/A   Clear
4:55 AM 51.8 °F 46.9 °F 83% 30.19 in 10.0 mi Calm Calm - N/A   Clear
5:15 AM 52.0 °F 46.4 °F 81% 30.20 in 10.0 mi Calm Calm - N/A   Clear
5:35 AM 50.4 °F 46.8 °F 87% 30.20 in 10.0 mi Calm Calm - N/A   Clear
5:55 AM 50.7 °F 47.5 °F 89% 30.21 in 10.0 mi Calm Calm - N/A   Clear
6:15 AM 50.0 °F 46.4 °F 87% 30.22 in 10.0 mi Calm Calm - N/A   Clear
6:35 AM 50.9 °F 46.8 °F 86% 30.22 in 10.0 mi West 3.5 mph - N/A   Clear
6:55 AM 51.6 °F 47.5 °F 86% 30.22 in 10.0 mi Calm Calm - N/A   Clear
7:15 AM 54.0 °F 48.4 °F 81% 30.22 in 10.0 mi Calm Calm - N/A   Clear
7:35 AM 55.8 °F 49.3 °F 79% 30.21 in 10.0 mi Calm Calm - N/A   Clear
7:55 AM 56.7 °F 50.2 °F 79% 30.20 in 10.0 mi Calm Calm - N/A   Clear
8:15 AM 58.8 °F 50.5 °F 74% 30.20 in 10.0 mi Calm Calm - N/A   Clear
8:35 AM 60.8 °F 48.9 °F 65% 30.20 in 10.0 mi West 3.5 mph - N/A   Clear
8:55 AM 62.4 °F 49.1 °F 62% 30.20 in 10.0 mi Calm Calm - N/A   Clear
9:15 AM 63.9 °F 49.3 °F 59% 30.20 in 10.0 mi SW 4.6 mph - N/A   Clear
9:35 AM 65.5 °F 49.5 °F 56% 30.20 in 10.0 mi Calm Calm - N/A   Clear
9:55 AM 66.6 °F 50.0 °F 55% 30.19 in 10.0 mi SW 4.6 mph - N/A   Clear
10:15 AM 68.7 °F 50.5 °F 52% 30.19 in 10.0 mi West 4.6 mph - N/A   Clear
10:35 AM 69.1 °F 51.3 °F 53% 30.19 in 10.0 mi Calm Calm - N/A   Clear
10:55 AM 70.3 °F 51.6 °F 51% 30.18 in 10.0 mi Calm Calm - N/A   Clear
11:15 AM 71.8 °F 52.2 °F 50% 30.18 in 10.0 mi Calm Calm - N/A   Clear
11:35 AM 73.4 °F 50.0 °F 44% 30.17 in 10.0 mi ENE 3.5 mph - N/A   Clear
11:55 AM 73.2 °F 50.5 °F 45% 30.17 in 10.0 mi SE 3.5 mph - N/A   Clear
12:15 PM 73.0 °F 48.9 °F 42% 30.16 in 10.0 mi Calm Calm - N/A   Clear
12:35 PM 74.3 °F 48.9 °F 41% 30.15 in 10.0 mi Calm Calm - N/A   Clear
12:55 PM 75.2 °F 49.5 °F 40% 30.14 in 10.0 mi Calm Calm - N/A   Clear
1:15 PM 75.9 °F 47.7 °F 37% 30.13 in 10.0 mi Calm Calm - N/A   Clear
1:35 PM 77.0 °F 48.0 °F 36% 30.12 in 10.0 mi WSW 4.6 mph - N/A   Clear
1:55 PM 77.2 °F 48.9 °F 37% 30.11 in 10.0 mi SE 5.8 mph - N/A   Clear
2:15 PM 77.7 °F 45.9 °F 32% 30.10 in 10.0 mi Calm Calm - N/A   Clear
2:35 PM 77.9 °F 46.2 °F 33% 30.10 in 10.0 mi Calm Calm - N/A   Clear
2:55 PM 78.4 °F 46.6 °F 32% 30.09 in 10.0 mi West 5.8 mph - N/A   Clear
3:15 PM 77.0 °F 43.0 °F 30% 30.09 in 10.0 mi Calm Calm - N/A   Clear
3:35 PM 78.8 °F 47.3 °F 33% 30.08 in 10.0 mi Calm Calm - N/A   Clear
3:55 PM 78.8 °F 48.4 °F 34% 30.08 in 10.0 mi West 8.1 mph - N/A   Clear
4:15 PM 77.4 °F 47.5 °F 35% 30.07 in 10.0 mi West 10.4 mph - N/A   Clear
4:35 PM 77.7 °F 47.1 °F 34% 30.06 in 10.0 mi SW 5.8 mph - N/A   Clear
4:55 PM 79.3 °F 46.6 °F 31% 30.05 in 10.0 mi SSW 3.5 mph - N/A   Clear
5:15 PM 78.3 °F 46.8 °F 33% 30.05 in 10.0 mi WSW 6.9 mph - N/A   Clear
5:35 PM 79.0 °F 48.9 °F 35% 30.05 in 10.0 mi WSW 4.6 mph - N/A   Clear
5:55 PM 77.9 °F 47.7 °F 34% 30.05 in 10.0 mi South 5.8 mph - N/A   Clear
6:15 PM 77.9 °F 48.6 °F 36% 30.04 in 10.0 mi SSW 5.8 mph - N/A   Scattered Clouds
6:35 PM 77.4 °F 50.5 °F 39% 30.04 in 10.0 mi South 3.5 mph - N/A   Scattered Clouds
6:55 PM 77.9 °F 49.3 °F 37% 30.03 in 10.0 mi South 4.6 mph - N/A   Clear
7:15 PM 76.6 °F 50.0 °F 39% 30.03 in 10.0 mi South 4.6 mph - N/A   Clear
7:55 PM 74.3 °F 53.8 °F 49% 30.02 in 10.0 mi SSE 4.6 mph - N/A   Clear
8:15 PM 72.0 °F 54.5 °F 54% 30.03 in 10.0 mi SSE 4.6 mph - N/A   Clear
8:35 PM 69.3 °F 55.0 °F 60% 30.03 in 10.0 mi Calm Calm - N/A   Clear
8:55 PM 68.7 °F 55.2 °F 62% 30.03 in 10.0 mi Calm Calm - N/A   Clear
9:15 PM 66.9 °F 55.2 °F 66% 30.03 in 10.0 mi Calm Calm - N/A   Clear
9:35 PM 66.2 °F 54.7 °F 66% 30.03 in 10.0 mi Calm Calm - N/A   Clear
9:55 PM 64.9 °F 54.1 °F 68% 30.03 in 10.0 mi Calm Calm - N/A   Scattered Clouds
10:35 PM 64.4 °F 54.9 °F 71% 30.02 in 10.0 mi Calm Calm - N/A   Scattered Clouds
10:55 PM 65.5 °F 55.6 °F 70% 30.01 in 10.0 mi Calm Calm - N/A   Mostly Cloudy
11:15 PM 65.3 °F 57.2 °F 75% 30.01 in 10.0 mi Calm Calm - N/A   Mostly Cloudy
11:35 PM 65.7 °F 56.8 °F 73% 30.00 in 10.0 mi Calm Calm - N/A   Scattered Clouds
11:55 PM 65.1 °F 58.3 °F 78% 29.99 in 10.0 mi Calm Calm - N/A   Mostly Cloudy